This is the latest recevied weather packets stored in our database for station/object KD5VOO. If no packets are shown the sender has not sent any weather packets the latest 10 day(s).
| Time | Temp. | Humidity | Pressure | Rain* | Wind** | Luminosity | Snow |
|---|---|---|---|---|---|---|---|
| 1777736942 | 18.89° C | 61% | 1014.9 hPa | 0 mm | - | 103 W/m² | - |
| 1777735722 | 18.33° C | 62% | 1014.9 hPa | 0 mm | - | 29 W/m² | - |
| 1777735420 | 17.78° C | 61% | 1014.6 hPa | 0 mm | - | 40 W/m² | - |
| 1777735118 | 17.78° C | 63% | 1014.6 hPa | 0 mm | - | 160 W/m² | - |
| 1777734814 | 17.78° C | 63% | 1014.6 hPa | 0 mm | - | 168 W/m² | - |
| 1777734512 | 17.78° C | 64% | 1014.6 hPa | 0 mm | - | 152 W/m² | - |
| 1777733904 | 17.22° C | 65% | 1014.3 hPa | 0 mm | - | 28 W/m² | - |
| 1777732995 | 16.67° C | 66% | 1013.9 hPa | 0 mm | - | 22 W/m² | - |
| 1777732690 | 16.67° C | 67% | 1014.3 hPa | 0 mm | - | 93 W/m² | - |
| 1777732387 | 16.67° C | 67% | 1014.3 hPa | 0 mm | - | 123 W/m² | - |
| 1777732085 | 16.11° C | 68% | 1014.3 hPa | 0 mm | - | 109 W/m² | - |
| 1777731782 | 16.11° C | 68% | 1013.9 hPa | 0 mm | - | 92 W/m² | - |
| 1777731479 | 16.11° C | 68% | 1014.3 hPa | 0 mm | - | 101 W/m² | - |
| 1777731177 | 15.56° C | 70% | 1013.9 hPa | 0 mm | - | 95 W/m² | - |
| 1777730874 | 15.56° C | 70% | 1013.9 hPa | 0 mm | - | 80 W/m² | - |
| 1777730572 | 15.56° C | 70% | 1013.9 hPa | 0 mm | - | 44 W/m² | - |
| 1777730268 | 15° C | 70% | 1013.9 hPa | 0 mm | - | 70 W/m² | - |
| 1777729661 | 14.44° C | 72% | 1013.9 hPa | 0 mm | - | 70 W/m² | - |
| 1777729054 | 13.89° C | 74% | 1013.9 hPa | 0 mm | - | 57 W/m² | - |
| 1777728751 | 13.89° C | 75% | 1013.9 hPa | 0 mm | - | 52 W/m² | - |
| 1777728447 | 13.89° C | 76% | 1013.6 hPa | 0 mm | - | 46 W/m² | - |
| 1777728145 | 13.33° C | 76% | 1013.2 hPa | 0 mm | - | 41 W/m² | - |
| 1777727842 | 13.33° C | 77% | 1013.6 hPa | 0 mm | - | 38 W/m² | - |
| 1777727539 | 12.78° C | 77% | 1013.6 hPa | 0 mm | - | 38 W/m² | - |
| 1777727236 | 12.78° C | 77% | 1013.2 hPa | 0 mm | - | 31 W/m² | - |
* Rain latest hour (hover to see other rain measurements)
** Current wind speed in m/s (hover to see current wind gust speed)